Regional Weather Roundup
Issued by NWS Binghamton, NY

Home | Current Version | Previous Version | Text Only | Print | Product List | Glossary On
Versions: 1 2 3 4 5 6 7 8 9 10 11 12 13 14 15 16 17 18 19 20 21 22 23 24 25 26 27 28 29 30 31 32 33 34 35 36 37 38 39 40 41 42 43 44 45 46 47 48 49 50
000
ASUS41 KBGM 192010
RWRBGM

REGIONAL WEATHER ROUNDUP
NATIONAL WEATHER SERVICE BINGHAMTON NY
300 PM EST MON FEB 19 2018

Note: "fair" indicates few or no clouds below 12,000 feet with no
significant weather and/or obstructions to visibility.

* = Station(s) that does not report precipitation, such as rain,
snow, etc, also no thunder or fog.

NYZ009-015>018-022>025-036-037-044>046-055>057-062-192100
...Central New York...

CITY           SKY/WX    TMP DP  RH WIND       PRES   REMARKS
Binghamton     LGT RAIN  35  34  96 S12G18    30.19S WCI  27
Dansville      LGT RAIN  48  42  80 SE12      30.09F
Elmira         LGT RAIN  42  38  85 SW6       30.18R
Seneca Falls   LGT RAIN  39  36  87 CALM      30.15F
Ithaca         LGT RAIN  38  36  92 S13       30.18R WCI  30
Hornell        LGT RAIN  45  41  87 SE7       30.14F
Monticello     RAIN      34  33  96 S9        30.32F WCI  27
Oneonta        RAIN      36 N/A N/A S6        30.19S WCI  31
Penn Yan       LGT RAIN  41  35  79 S13G21    30.13R
Rome           HVY RAIN  37  35  92 E5        30.22S FOG     WCI  33
Sidney         CLOUDY    37  36  93 SW7       30.22R WCI  32
Syracuse       LGT RAIN  40  38  93 S6        30.18R FOG
$$

PAZ038>040-043-044-047-048-072-192100
...Northeast Pennsylvania...

CITY           SKY/WX    TMP DP  RH WIND       PRES   REMARKS
Hazleton       RAIN      37  36  93 S6        30.31F WCI  33
Scranton       LGT RAIN  40  36  86 S8        30.29F WCI  34
$$
&&
KEY
WCI = Wind Chill Index
VSB = Visibility
HX  = Heat Index
$$



USA.gov is the U.S. government's official web portal to all federal, state and local government web resources and services.